Regional Weather Roundup
Issued by NWS Green Bay, WI

Home | Current Version | Previous Version | Text Only | Print | Product List | Glossary On
Versions: 1 2 3 4 5 6 7 8 9 10 11 12 13 14 15 16 17 18 19 20 21 22 23 24 25 26 27 28 29 30 31 32 33 34 35 36 37 38 39 40 41 42 43 44 45 46 47 48 49 50
000
ASUS43 KGRB 250959
RWRGRB

NORTH-CENTRAL AND NORTHEAST WISCONSIN REGIONAL WEATHER ROUNDUP
NATIONAL WEATHER SERVICE GREEN BAY WI
500 AM CDT FRI JUL 25 2014

WIZ005-009-010>012-018-019-251100-
NORTH CENTRAL WISCONSIN

CITY           SKY/WX    TMP DP  RH WIND       PRES   REMARKS
IRONWOOD       NOT AVBL
MANITOWISH WTR NOT AVBL
ARBOR VITAE    NOT AVBL
EAGLE RIVER    NOT AVBL
LAND O LAKES   NOT AVBL
RHINELANDER    MOCLDY    61  56  83 SW6       29.97R
PHILLIPS       NOT AVBL
ANTIGO         NOT AVBL
TOMAHAWK       NOT AVBL
MERRILL        NOT AVBL
$$

WIZ013-073-251100-
NORTHEAST WISCONSIN

CITY           SKY/WX    TMP DP  RH WIND       PRES   REMARKS
IRON MOUNTAIN  MOCLDY    58  54  86 CALM      29.95R
MARINETTE      MOCLDY    63  46  55 SW7       29.96R
$$

WIZ017-030-035>037-045-251100-
CENTRAL WISCONSIN

CITY           SKY/WX    TMP DP  RH WIND       PRES   REMARKS
MEDFORD        NOT AVBL
WAUSAU         PTCLDY    62  58  86 S5        29.96R
MOSINEE        NOT AVBL
MARSHFIELD     MOCLDY    62  58  86 SW6       29.98R
WISC RAPIDS    PTCLDY    62  57  83 S6        29.99R
STEVENS POINT  NOT AVBL
WAUPACA        NOT AVBL
SHAWANO        NOT AVBL
CLINTONVILLE   NOT AVBL
$$

WIZ038-039-048-051-251100-
FOX VALLEY

CITY           SKY/WX    TMP DP  RH WIND       PRES   REMARKS
NWS GREEN BAY  MOCLDY    62  53  72 SW7       29.99R
APPLETON       NOT AVBL
OSHKOSH        CLOUDY    60  50  69 S9        30.00R
FOND DU LAC    MOCLDY    60  47  61 SW8       30.02R
$$

WIZ022-050-052-251100-
EAST CENTRAL WISCONSIN

CITY           SKY/WX    TMP DP  RH WIND       PRES   REMARKS
STURGEON BAY   PTCLDY    59  45  58 SW8       29.97R
MANITOWOC      NOT AVBL
SHEBOYGAN      MOCLDY    58  47  66 SW7       30.01R
$$

LMZ563-521-522-541>543-251100-
LAKESHORE

STATION/POSITION TIME  TEMP    WIND        PRES    VSBY  WAVE
                       AIR SEA DIR/SP/G                  HT/PER
                 (UTC) (F)     (DEG/KT/KT) (MB)    (MI)  (FT/S)
SHEBOYGAN LKSHOR 0900   63     210/ 11/ 12 1015.6F
KEWAUNEE LKSHORE 0900   54     170/  2/  5 1015.5F
NORTHPORT PIER   0900   61     160/  3/  6 1014.2F
N MID LAKE BUOY  0900   58 53  220/  8/ 10 1014.8F         2/ 4
CHAMBERS ISLAND  0900   64     200/  5/  9 1014.2F
MENOMINEE LKSHOR 0900   64     200/  7/  9 1014.7F
$$


USA.gov is the U.S. government's official web portal to all federal, state and local government web resources and services.